User: anonymous   Login
Location: Unspecified
(0.0000°N, 0.0000°E)
Time: 07:13:14
(UTC+00:00)
Language:

MTI - Orbit

View from above orbital plane
View from above orbital plane
View from above satellite
View from above satellite

Ground track
Ground track

The orbit data is extracted from the following two-line orbital elements,

1 26102U 00014A   18347.91971700 +.00004916 +00000-0 +84447-4 0  9994
2 26102 097.5700 191.5994 0010634 089.4645 270.7825 15.51608363038885
Epoch (UTC): 13 December 2018 22:04:23
Eccentricity: 0.0010634
inclination: 97.5700°
perigee height: 405 km
apogee height: 419 km
right ascension of ascending node: 191.5994°
argument of perigee: 89.4645°
revolutions per day: 15.51608363
mean anomaly at epoch: 270.7825°
orbit number at epoch: 3888

The dashed part of the orbit path shows where the satellite is in the earth's shadow,  

DLR